Simultaneous Nadir Overpasses (SNOs) Predictions

Prediction of SNOs between METOP-B and TERRA Satellite Orbit:

Table of predicted SNOs for the next 14.0 days since TLE Epoch: 12/19/2020
Index Date (METOP-B) Time (METOP-B) Lat,Lon (METOP-B) SZA (METOP-B ) Date (TERRA) Time (TERRA) Lat,Lon (TERRA) SZA (TERRA ) Distance(km) Time Diff (sec)
1 12/21/2020 14:04:21 81.29, 15.45 107.32 12/21/2020 14:05:19 81.30, 15.56 107.37 2.10 58
2 12/21/2020 14:55:00 -81.30,-176.70 72.62 12/21/2020 14:54:46 -81.29,-176.89 72.65 3.17 14
3 12/24/2020 09:38:45 81.29, 81.98 107.27 12/24/2020 09:39:34 81.29, 81.92 107.28 0.92 49
4 12/24/2020 10:29:25 -81.30,-110.53 72.72 12/24/2020 10:29:01 -81.29,-110.50 72.73 0.83 24
5 12/27/2020 05:13:10 81.29, 148.10 107.10 12/27/2020 05:13:49 81.29, 148.24 107.13 2.47 39
6 12/27/2020 06:03:48 -81.30, -43.60 72.80 12/27/2020 06:03:15 -81.31, -43.78 72.83 2.96 33
7 12/30/2020 00:47:32 81.30,-145.02 106.96 12/30/2020 00:48:02 81.30,-145.10 106.97 1.36 30
8 12/30/2020 01:38:12 -81.30, 22.53 73.02 12/30/2020 01:37:29 -81.30, 22.52 73.04 0.10 43
9 01/01/2021 20:21:57 81.29, -78.94 106.67 01/01/2021 20:22:17 81.29, -78.86 106.69 1.45 20



Historial Predications of SNOs between METOP-B and TERRA
